Weather reports worldwide

Advertisment
Pau, France (7610): temperature & dewpoint: 24.10.2020 21:00:00 - 30.10.2020 21:00:00 (CET)Pau, France (7610): temperature 5cm: 24.10.2020 21:00:00 - 30.10.2020 21:00:00 (CET)Pau, France (7610): temperature -20cm & temperature -100cm: 24.10.2020 21:00:00 - 30.10.2020 21:00:00 (CET)Pau, France (7610): wind speed & gusts: 24.10.2020 21:00:00 - 30.10.2020 21:00:00 (CET)Pau, France (7610): wind direction: 24.10.2020 21:00:00 - 30.10.2020 21:00:00 (CET)Pau, France (7610): reduced air pressure: 24.10.2020 21:00:00 - 30.10.2020 21:00:00 (CET)Pau, France (7610): visibility: 24.10.2020 21:00:00 - 30.10.2020 21:00:00 (CET)Pau, France (7610): sunshine duration: 24.10.2020 21:00:00 - 30.10.2020 21:00:00 (CET)Pau, France (7610): precipitation: 24.10.2020 21:00:00 - 30.10.2020 21:00:00 (CET)
Date & Time tt [°C] td [°C] tt 5cm [°C] tt -20cm [°C] tt -100cm [°C] ff [km/h] ff [kn] fx [km/h] fx [kn] dd ppp [hPa] vv [km] sd [min] rr [mm]
30.10.2020 21:00:00 11,7 10,8 8,1 15,1 16,0 4 2 9 5 E 1024,4 22 0 0,0
30.10.2020 20:00:00 12,7 11,3 6,9 15,1 15,9 4 2 6 3 ESE 1024,5 31 0 0,0
30.10.2020 19:00:00 14,2 11,2 7,8 15,0 15,9 4 2 8 5 NE 1024,5 32 0 0,0
30.10.2020 18:00:00 17,5 11,7 10,4 14,9 15,9 6 3 12 6 N 1023,8 38 29 0,0
30.10.2020 17:00:00 20,7 11,6 20,0 14,8 15,9 9 5 18 10 N 1023,3 40 60 0,0
30.10.2020 16:00:00 22,3 11,7 25,3 14,8 15,9 11 6 19 10 NNE 1023,2 23 60 0,0
30.10.2020 15:00:00 22,8 10,9 27,0 14,7 15,9 10 6 19 11 NNE 1023,1 18 60 0,0
30.10.2020 14:00:00 22,2 11,6 28,7 14,7 15,9 12 7 19 10 NW 1023,3 12 60 0,0
30.10.2020 13:00:00 21,2 10,7 30,5 14,7 16,0 8 4 13 7 WNW 1023,8 48 60 0,0
30.10.2020 12:00:00 20,2 9,4 28,9 14,7 15,9 4 2 9 5 W 1024,4 32 60 0,0
30.10.2020 11:00:00 18,2 9,8 23,6 14,8 16,0 3 2 11 6 WSW 1024,9 36 60 0,0
30.10.2020 10:00:00 15,2 8,9 13,1 14,8 15,9 10 5 14 7 SE 1025,2 51 60 0,0
30.10.2020 09:00:00 11,3 8,2 4,8 14,9 16,0 7 4 10 5 SE 1025,7 41 60 0,0
30.10.2020 08:00:00 7,6 6,8 3,2 15,0 16,0 5 3 12 6 SE 1025,8 35 7 0,0
30.10.2020 07:00:00 7,5 6,9 3,5 15,0 16,0 9 5 11 6 ESE 1025,5 36 0 0,0
30.10.2020 06:00:00 7,7 7,1 4,0 15,0 16,0 8 4 10 6 SE 1025,7 27 0 0,0
30.10.2020 05:00:00 7,8 7,2 3,0 15,1 16,0 8 4 9 5 SE 1025,6 25 0 0,0
30.10.2020 04:00:00 8,0 7,2 3,2 15,1 16,0 4 2 8 4 SE 1025,6 2,4 0 0,0
30.10.2020 03:00:00 8,8 8,0 4,4 15,2 16,0 8 4 9 5 SE 1025,5 18 0 0,0
30.10.2020 02:00:00 8,8 8,0 4,4 15,2 16,0 6 3 10 5 E 1025,7 20 0 0,0
30.10.2020 01:00:00 9,0 8,4 4,4 15,2 16,0 6 3 9 5 ESE 1025,9 20 0 0,0
30.10.2020 00:00:00 9,4 8,6 4,6 15,2 16,0 5 3 7 4 ESE 1026,3 20 0 0,0
29.10.2020 23:00:00 10,0 9,1 4,9 15,2 16,0 5 3 8 4 SE 1026,3 27 0 0,0
29.10.2020 22:00:00 10,4 8,7 5,2 15,2 16,0 5 3 8 5 SSE 1026,3 44 0 0,0
29.10.2020 21:00:00 11,1 9,4 6,0 15,2 16,0 3 2 12 6 ESE 1026,0 44 0 0,0
29.10.2020 20:00:00 12,6 9,8 7,1 15,1 16,0 9 5 14 8 ESE 1025,8 46 0 0,0
29.10.2020 19:00:00 14,5 10,1 9,0 15,1 16,0 8 4 11 6 E 1025,6 49 0 0,0
29.10.2020 18:00:00 16,9 10,0 11,5 15,0 16,0 6 3 15 8 ENE 1025,0 59 30 0,0
29.10.2020 17:00:00 19,0 10,0 18,6 14,9 16,0 10 5 17 9 ENE 1024,8 25 60 0,0
29.10.2020 16:00:00 19,8 10,2 23,2 14,7 16,0 8 4 46 25 NE 1024,9 38 60 0,0
29.10.2020 15:00:00 19,6 9,8 25,1 14,8 16,0 7 4 16 9 NE 1025,2 12 60 0,0
29.10.2020 14:00:00 19,7 9,0 27,2 14,8 16,0 8 5 17 9 ENE 1025,6 56 60 0,0
29.10.2020 13:00:00 19,5 9,4 26,5 14,8 16,0 6 3 19 11 NNE 1026,0 15 60 0,0
29.10.2020 12:00:00 18,4 10,0 25,9 14,8 16,0 5 3 13 7 NE 1026,8 38 60 0,0
29.10.2020 11:00:00 17,0 9,7 22,0 14,8 16,0 7 4 14 8 SE 1026,9 44 60 0,0
29.10.2020 10:00:00 14,5 9,3 15,4 14,8 16,0 8 5 13 7 SE 1027,2 38 60 0,0
29.10.2020 09:00:00 11,5 8,9 7,4 14,9 16,0 8 4 11 6 SSE 1027,2 47 60 0,0
29.10.2020 08:00:00 9,2 8,1 5,0 14,9 16,0 9 5 10 5 SE 1026,7 38 6 0,0
29.10.2020 07:00:00 9,8 8,1 7,5 14,9 16,1 5 3 11 6 ESE 1026,3 41 0 0,0
29.10.2020 06:00:00 10,9 9,2 8,7 14,9 16,1 10 5 13 7 ESE 1026,3 40 0 0,0
29.10.2020 05:00:00 11,8 10,0 10,7 14,9 16,1 9 5 13 7 SE 1026,2 36 0 0,0
29.10.2020 04:00:00 11,6 10,2 10,2 15,0 16,1 5 3 11 6 ESE 1026,2 29 0 0,0
29.10.2020 03:00:00 11,4 10,3 10,3 15,0 16,1 8 4 9 5 SE 1026,0 24 0 0,0
29.10.2020 02:00:00 11,2 10,3 9,3 15,0 16,1 7 4 11 6 ESE 1026,2 21 0 0,0
29.10.2020 01:00:00 10,4 9,8 7,7 15,0 16,1 5 3 10 6 E 1026,1 12 0 0,0
29.10.2020 00:00:00 10,8 10,0 8,3 15,0 16,1 8 5 11 6 SE 1025,6 17 0 0,0
28.10.2020 23:00:00 10,9 10,1 6,7 15,0 16,1 10 5 13 7 SE 1025,4 16 0 0,0
28.10.2020 22:00:00 11,0 9,9 7,4 15,0 16,1 3 2 11 6 SE 1024,8 20 0 0,0
28.10.2020 21:00:00 13,4 10,0 10,4 15,0 16,1 4 2 11 6 S 1024,3 39 0 0,0
28.10.2020 20:00:00 14,3 10,1 13,0 14,9 16,1 7 4 14 8 SSW 1024,2 49 0 0,0
28.10.2020 19:00:00 14,5 10,3 13,0 14,9 16,2 6 4 14 7 SW 1023,7 50 0 0,0
28.10.2020 18:00:00 14,8 10,2 13,8 14,9 16,1 12 6 20 11 W 1023,0 49 0 0,0
28.10.2020 17:00:00 15,7 10,7 15,2 14,9 16,2 13 7 24 13 W 1022,2 59 0 0,0
28.10.2020 16:00:00 16,2 11,4 16,5 14,8 16,1 13 7 25 14 W 1021,7 57 0 0,0
28.10.2020 15:00:00 16,5 11,4 17,9 14,8 16,2 14 8 25 14 WNW 1021,2 54 2 0,0
28.10.2020 14:00:00 16,3 12,1 17,6 14,7 16,1 15 8 28 15 WNW 1021,4 50 0 0,0
28.10.2020 13:00:00 15,6 12,7 15,8 14,7 16,2 12 7 20 11 W 1021,5 59 0 0,0
28.10.2020 12:00:00 14,8 12,8 14,6 14,7 16,2 11 6 31 17 NW 1021,7 59 0 0,0
28.10.2020 11:00:00 14,5 13,0 14,4 14,8 16,2 14 8 23 12 WNW 1021,1 52 0 0,0
28.10.2020 10:00:00 14,4 13,4 13,8 14,7 16,2 7 4 14 7 W 1020,4 44 10 0,0
28.10.2020 09:00:00 13,1 12,8 12,4 14,7 16,2 4 2 7 4 NNW 1019,9 18 0 0,0
28.10.2020 08:00:00 12,6 12,3 12,1 14,7 16,2 2 1 15 8 ENE 1018,8 15 0 0,0
28.10.2020 07:00:00 12,4 12,1 11,9 14,8 16,2 7 4 11 6 SSE 1018,1 17 0 0,0
28.10.2020 06:00:00 12,3 12,0 11,6 14,8 16,2 8 4 9 5 SE 1018,0 16 0 0,0
28.10.2020 05:00:00 11,8 11,6 10,0 14,8 16,2 3 2 9 5 ESE 1017,4 18 0 0,0
28.10.2020 04:00:00 11,6 11,3 9,3 14,8 16,2 6 3 9 5 SSE 1017,1 4,5 0 0,0
28.10.2020 03:00:00 11,8 11,3 10,4 14,8 16,2 2 1 6 3 NE 1016,9 4,0 0 0,0
28.10.2020 02:00:00 12,3 11,8 10,4 14,8 16,2 0 0 7 4 N 1016,5 4,0 0 0,0
28.10.2020 01:00:00 12,6 12,1 11,7 14,8 16,2 3 2 14 8 NE 1016,2 20 0 0,0
28.10.2020 00:00:00 12,7 12,2 11,8 14,8 16,3 13 7 19 10 SE 1015,5 39 0 0,0
27.10.2020 23:00:00 12,9 12,4 12,5 14,7 16,3 6 4 20 11 ESE 1015,9 33 0 0,4
27.10.2020 22:00:00 13,2 12,3 12,7 14,7 16,3 11 6 19 11 SE 1015,7 1,7 0 2,0
27.10.2020 21:00:00 13,8 11,5 12,7 14,7 16,3 12 6 21 11 SSE 1015,2 50 0 0,0
27.10.2020 20:00:00 14,0 11,2 12,1 14,6 16,3 7 4 18 10 S 1015,1 60 0 0,0
27.10.2020 19:00:00 14,1 11,1 12,5 14,6 16,3 14 8 30 16 SW 1015,3 19 0 0,2
27.10.2020 18:00:00 15,6 9,9 14,1 14,6 16,3 4 2 9 5 NW 1014,3 8 0 0,0
27.10.2020 17:00:00 17,0 8,2 16,7 14,6 16,3 6 3 8 4 W 1013,5 39 0 0,0
27.10.2020 16:00:00 17,4 7,7 17,4 14,5 16,3 7 4 18 10 WSW 1013,4 60 9 0,0
27.10.2020 15:00:00 18,1 6,0 20,7 14,5 16,3 11 6 19 11 SW 1013,4 57 38 0,0
27.10.2020 14:00:00 17,3 6,5 18,2 14,5 16,3 10 5 23 12 WSW 1014,1 60 14 0,0
27.10.2020 13:00:00 16,3 7,2 18,6 14,5 16,3 14 8 36 19 WSW 1014,9 53 27 0,0
27.10.2020 12:00:00 16,2 6,9 17,2 14,5 16,3 18 10 27 15 WSW 1015,7 52 17 0,0
27.10.2020 11:00:00 15,1 7,6 16,7 14,6 16,3 13 7 25 13 SW 1015,9 53 30 0,0
27.10.2020 10:00:00 13,0 8,9 12,5 14,7 16,3 6 3 13 7 SSE 1016,1 60 5 0,0
27.10.2020 09:00:00 10,8 8,6 9,3 14,8 16,3 8 5 11 6 SE 1016,4 58 0 0,0
27.10.2020 08:00:00 9,7 8,1 8,5 14,8 16,3 8 5 14 8 SE 1016,2 60 0 0,0
27.10.2020 07:00:00 9,7 8,0 8,6 14,8 16,3 6 4 13 7 ESE 1016,1 60 0 0,0
27.10.2020 06:00:00 9,7 7,6 8,1 14,8 16,3 7 4 31 17 SSW 1016,3 60 0 0,0
27.10.2020 05:00:00 9,9 8,0 8,6 14,9 16,3 21 11 31 17 SW 1016,5 28 0 0,0
27.10.2020 04:00:00 9,7 8,0 8,7 14,9 16,4 6 3 19 11 S 1016,5 20 0 0,4
27.10.2020 03:00:00 10,0 8,1 8,9 14,9 16,4 10 5 22 12 SW 1017,0 51 0 0,0
27.10.2020 02:00:00 9,6 8,4 8,8 14,9 16,4 13 7 30 16 SW 1017,2 14 0 0,4
27.10.2020 01:00:00 9,6 8,2 8,6 15,0 16,4 16 9 24 13 SW 1017,7 43 0 0,0
27.10.2020 00:00:00 9,3 8,1 7,7 15,0 16,4 11 6 24 13 SSW 1018,0 29 0 0,4
26.10.2020 23:00:00 8,9 7,2 7,8 15,0 16,4 11 6 32 17 SSW 1018,2 60 0 0,0
26.10.2020 22:00:00 9,1 7,9 8,4 15,0 16,4 18 10 32 17 SSW 1018,0 37 0 0,2
26.10.2020 21:00:00 9,2 7,6 7,5 15,0 16,4 15 8 27 15 S 1017,5 60 0 0,0
26.10.2020 20:00:00 8,8 7,1 7,3 15,0 16,4 16 9 36 19 SSW 1017,8 60 0 0,6
26.10.2020 19:00:00 8,4 7,5 7,7 15,0 16,4 18 10 35 19 SSW 1017,6 6 0 1,8
26.10.2020 18:00:00 8,8 6,6 7,7 15,0 16,4 14 8 31 17 SSW 1016,9 10 20 0,0
26.10.2020 17:00:00 9,0 7,3 8,4 15,0 16,4 18 10 36 19 SSW 1016,5 14 1 0,0
26.10.2020 16:00:00 9,6 8,0 9,2 14,9 16,4 20 11 37 20 SW 1016,4 35 5 0,2
26.10.2020 15:00:00 10,0 9,1 8,6 14,8 16,4 12 7 25 14 SW 1015,6 20 4 1,8
26.10.2020 14:00:00 8,9 7,8 8,4 14,8 16,4 14 8 32 18 SSW 1015,6 6 0 1,8
26.10.2020 13:00:00 9,0 7,4 8,6 14,9 16,4 19 10 36 19 SSW 1015,8 8 0 0,4
26.10.2020 12:00:00 9,4 7,8 8,8 14,9 16,4 16 8 30 16 SSW 1015,9 30 20 1,5
26.10.2020 11:00:00 9,0 7,9 7,8 15,0 16,4 9 5 14 8 S 1015,8 48 1 2,2
26.10.2020 10:00:00 8,3 7,2 7,9 15,0 16,4 11 6 18 10 WSW 1016,0 4,8 0 2,6
26.10.2020 09:00:00 8,9 7,2 7,9 15,1 16,4 12 6 29 16 NNW 1014,8 28 0 0,0
26.10.2020 08:00:00 8,8 7,1 7,9 15,1 16,4 19 10 36 19 SW 1012,9 20 0 0,8
26.10.2020 07:00:00 9,0 7,4 8,0 15,2 16,4 16 9 24 13 WSW 1012,5 19 0 0,0
26.10.2020 06:00:00 8,8 7,6 8,0 15,2 16,4 7 4 20 11 SSW 1011,8 15 0 2,0
26.10.2020 05:00:00 8,9 7,8 8,2 15,3 16,4 16 9 27 14 SW 1011,5 9 0 0,6
26.10.2020 04:00:00 8,9 8,0 8,0 15,3 16,4 13 7 25 13 SSW 1011,3 48 0 0,0
26.10.2020 03:00:00 9,3 8,4 8,7 15,3 16,4 13 7 28 15 WSW 1011,5 10 0 1,0
26.10.2020 02:00:00 10,0 8,8 8,7 15,3 16,4 10 5 18 10 W 1011,5 20 0 0,0
26.10.2020 01:00:00 10,1 8,5 9,0 15,4 16,4 6 3 16 9 S 1011,0 60 0 0,0
26.10.2020 00:00:00 10,1 8,9 9,4 15,4 16,4 9 5 21 12 SSW 1011,0 38 0 0,2
25.10.2020 23:00:00 10,3 9,5 9,7 15,5 16,4 9 5 25 14 SW 1011,3 19 0 0,4
25.10.2020 22:00:00 10,2 9,6 9,8 15,5 16,4 10 5 24 13 SSW 1011,4 13 0 2,0
25.10.2020 21:00:00 10,5 10,0 10,2 15,5 16,4 11 6 22 12 SSW 1010,6 12 0 3,3
25.10.2020 20:00:00 10,9 10,3 10,4 15,5 16,4 9 5 21 11 SSW 1011,0 3,8 0 4,0
25.10.2020 19:00:00 10,9 10,3 10,5 15,5 16,4 20 11 51 27 WNW 1011,0 4,4 0 5,4
25.10.2020 18:00:00 12,0 10,9 11,6 15,5 16,4 29 16 51 28 WNW 1009,3 1,2 0 4,3
25.10.2020 17:00:00 14,3 12,8 13,6 15,5 16,4 19 10 30 16 NNW 1008,0 11 0 0,6
25.10.2020 16:00:00 16,3 11,4 16,3 15,5 16,4 5 3 14 8 E 1006,8 45 0 0,0
25.10.2020 15:00:00 16,3 11,7 16,2 15,5 16,4 7 4 18 10 NE 1007,6 53 0 0,0
25.10.2020 14:00:00 15,7 11,5 15,7 15,5 16,4 5 3 20 11 NNE 1008,2 50 0 0,0
25.10.2020 13:00:00 16,0 11,2 16,7 15,5 16,4 16 8 25 14 NNW 1009,0 33 0 0,0
25.10.2020 12:00:00 17,7 11,0 17,8 15,5 16,4 5 3 16 8 E 1008,9 42 0 0,0
25.10.2020 11:00:00 18,8 9,6 15,7 15,6 16,4 8 4 20 11 SE 1009,1 52 2 0,0
25.10.2020 10:00:00 14,9 10,3 14,6 15,6 16,4 4 2 19 10 SSW 1009,8 54 0 0,0
25.10.2020 09:00:00 16,9 9,6 9,5 15,7 16,4 8 4 14 7 SSW 1009,7 51 35 0,0
25.10.2020 08:00:00 10,6 6,3 6,6 15,7 16,4 8 5 15 8 SE 1009,8 54 9 0,0
25.10.2020 07:00:00 9,5 6,2 6,1 15,8 16,4 9 5 18 10 ESE 1009,7 53 0 0,0
25.10.2020 06:00:00 9,2 6,1 6,1 15,8 16,4 6 3 21 12 E 1009,9 57 0 0,0
25.10.2020 05:00:00 9,8 6,5 7,3 15,9 16,4 10 5 24 13 ESE 1010,6 50 0 0,0
25.10.2020 04:00:00 10,4 6,9 7,2 15,9 16,4 9 5 22 12 SE 1011,2 32 0 0,0
25.10.2020 03:00:00 9,5 7,1 6,9 16,0 16,4 14 8 19 10 SE 1012,3 34 0 0,0
25.10.2020 02:00:00 9,7 7,6 5,8 16,0 16,4 12 7 16 8 SE 1013,2 33 0 0,0
25.10.2020 01:00:00 - - - - - - - - - - - - - -
25.10.2020 00:00:00 10,1 8,2 5,3 16,1 16,4 10 5 14 7 SE 1014,6 32 0 0,0
24.10.2020 23:00:00 9,7 7,8 5,3 16,1 16,4 2 1 15 8 NNW 1015,4 30 0 0,0
24.10.2020 22:00:00 10,5 8,9 7,2 16,1 16,4 5 3 9 5 E 1015,5 23 0 0,0
24.10.2020 21:00:00 11,2 9,1 7,6 16,1 16,4 4 2 10 5 SE 1015,8 32 0 0,0

tt = temperature
td = dewpoint
tt 5cm = temperature 5cm
tt -20cm = temperature -20cm
tt -100cm = temperature -100cm
ff = wind speed
fx = gusts
dd = wind direction
ppp = reduced air pressure
vv = visibility
sd = sunshine duration
rr = precipitation

Next stations